User: anonymous   Login
Location: Unspecified
(0.0000°N, 0.0000°E)
Time: 02:48:59
(UTC+00:00)
Language:

Transit VE-3 - Orbit

View from above orbital plane
View from above orbital plane
View from above satellite
View from above satellite

Ground track
Ground track

The orbit data is extracted from the following two-line orbital elements,

1   705U 63049C   18321.95748233 +.00000006 +00000-0 -59660-5 0  9998
2   705 089.9075 095.9812 0032438 299.8808 174.3100 13.47326759699412
Epoch (UTC): 17 November 2018 22:58:46
Eccentricity: 0.0032438
inclination: 89.9075°
perigee height: 1058 km
apogee height: 1106 km
right ascension of ascending node: 95.9812°
argument of perigee: 299.8808°
revolutions per day: 13.47326759
mean anomaly at epoch: 174.3100°
orbit number at epoch: 69941

The dashed part of the orbit path shows where the satellite is in the earth's shadow,  

DLR